Mona Airport

Jump to: basic info | weather | comments

Related pages: nearby airports | nearby navaids

Basic information (top)

Location: lon 18.075300, lat -67.931000, elev 1 ft / 0 m msl
Status: small_airport

Weather (top)

Current conditions for Punta Cana International Airport 38nm (71km) NW (rec'd 2014/07/30 08:00Z):

MDPC 300800Z 00000KT 9999 FEW018 23/22 Q1016 NOSIG

Airport forecast for Punta Cana International Airport 38nm (71km) NW (rec'd 2014/07/29 18:36Z):

TAF MDPC 291600Z 2918/3018 16010KT 9999 SCT025 PROB30 3001/3007 8000 RA SCT018 SCT070 
      BECMG 3002/3004 00000

Latest comments (top)

No comments yet for Mona Airport

More... (top)

See also NOTAMs and nearby airports and navaids, or visit the Mona Airport page at the main OurAirports website..